| time (UTC) | temp C | wind direction | speed KPH | gust KPH | rain 1hr cm | rain 24hr cm | rain mn cm | humidity % | barometer mb |
| 20260507094104 | 6 | 236 | 9.7 | 22.5 | 0.00 | 0.00 | 0.00 | 77 | 1013.7 |
| 20260507093104 | 6 | 232 | 16.1 | 24.1 | 0.00 | 0.00 | 0.00 | 77 | 1013.7 |
| 20260507092604 | 6 | 210 | 14.5 | 20.9 | 0.00 | 0.00 | 0.00 | 77 | 1013.7 |
| 20260507091103 | 6 | 218 | 14.5 | 20.9 | 0.00 | 0.00 | 0.00 | 77 | 1013.7 |
| 20260507090604 | 6 | 212 | 16.1 | 25.7 | 0.00 | 0.00 | 0.00 | 76 | 1013.8 |
| 20260507090103 | 6 | 213 | 17.7 | 22.5 | 0.00 | 0.00 | 0.00 | 77 | 1013.8 |
| 20260507085104 | 6 | 207 | 14.5 | 25.7 | 0.00 | 0.00 | 0.00 | 76 | 1013.8 |
| 20260507084604 | 6 | 213 | 16.1 | 25.7 | 0.00 | 0.00 | 0.00 | 76 | 1013.9 |
| 20260507084103 | 7 | 214 | 16.1 | 27.4 | 0.00 | 0.00 | 0.00 | 76 | 1014.0 |
| 20260507083604 | 7 | 215 | 19.3 | 25.7 | 0.00 | 0.00 | 0.00 | 75 | 1014.1 |
| 20260507083103 | 7 | 215 | 19.3 | 29.0 | 0.00 | 0.00 | 0.00 | 75 | 1014.1 |
| 20260507082604 | 7 | 213 | 19.3 | 29.0 | 0.00 | 0.00 | 0.00 | 76 | 1014.1 |
| 20260507082103 | 7 | 215 | 14.5 | 32.2 | 0.00 | 0.00 | 0.00 | 75 | 1014.1 |
| 20260507081604 | 7 | 214 | 16.1 | 24.1 | 0.00 | 0.00 | 0.00 | 75 | 1014.2 |
| 20260507081103 | 7 | 215 | 19.3 | 25.7 | 0.00 | 0.00 | 0.00 | 75 | 1014.3 |
| 20260507080604 | 7 | 225 | 12.9 | 24.1 | 0.00 | 0.00 | 0.00 | 74 | 1014.5 |
| 20260507080103 | 7 | 230 | 12.9 | 22.5 | 0.00 | 0.00 | 0.00 | 74 | 1014.8 |
| 20260507075603 | 7 | 212 | 14.5 | 20.9 | 0.00 | 0.00 | 0.00 | 74 | 1014.8 |
| 20260507074603 | 7 | 244 | 11.3 | 24.1 | 0.00 | 0.00 | 0.00 | 74 | 1014.8 |
| 20260507074103 | 7 | 229 | 14.5 | 20.9 | 0.00 | 0.00 | 0.00 | 74 | 1014.9 |
| 20260507073603 | 7 | 236 | 14.5 | 22.5 | 0.00 | 0.00 | 0.00 | 73 | 1015.1 |
| 20260507073104 | 7 | 223 | 11.3 | 24.1 | 0.00 | 0.00 | 0.00 | 73 | 1015.1 |
| 20260507072603 | 7 | 236 | 12.9 | 25.7 | 0.00 | 0.00 | 0.00 | 73 | 1015.2 |
| 20260507072104 | 7 | 223 | 12.9 | 20.9 | 0.00 | 0.00 | 0.00 | 73 | 1015.2 |
| 20260507071604 | 7 | 217 | 14.5 | 25.7 | 0.00 | 0.00 | 0.00 | 73 | 1015.4 |
| 20260507071103 | 7 | 252 | 14.5 | 22.5 | 0.00 | 0.00 | 0.00 | 72 | 1015.5 |
| 20260507070604 | 7 | 219 | 12.9 | 22.5 | 0.00 | 0.00 | 0.00 | 72 | 1015.4 |
| 20260507065604 | 7 | 218 | 12.9 | 25.7 | 0.00 | 0.00 | 0.00 | 70 | 1015.6 |
| 20260507065104 | 7 | 224 | 14.5 | 22.5 | 0.00 | 0.00 | 0.00 | 70 | 1015.6 |
| 20260507064603 | 7 | 240 | 12.9 | 25.7 | 0.00 | 0.00 | 0.00 | 70 | 1015.6 |
| 20260507064104 | 7 | 226 | 16.1 | 32.2 | 0.00 | 0.00 | 0.00 | 70 | 1015.6 |
| 20260507063603 | 7 | 251 | 16.1 | 25.7 | 0.00 | 0.00 | 0.00 | 70 | 1015.7 |
| 20260507063104 | 7 | 221 | 16.1 | 27.4 | 0.00 | 0.00 | 0.00 | 70 | 1015.7 |
| 20260507062603 | 7 | 220 | 14.5 | 22.5 | 0.00 | 0.00 | 0.00 | 70 | 1015.8 |
| 20260507062104 | 7 | 230 | 14.5 | 22.5 | 0.00 | 0.00 | 0.00 | 70 | 1015.8 |
| 20260507061603 | 7 | 219 | 14.5 | 22.5 | 0.00 | 0.00 | 0.00 | 70 | 1015.8 |
| 20260507061104 | 7 | 219 | 16.1 | 25.7 | 0.00 | 0.00 | 0.00 | 70 | 1015.8 |
| 20260507060604 | 7 | 219 | 16.1 | 22.5 | 0.00 | 0.00 | 0.00 | 69 | 1015.9 |
| 20260507060104 | 8 | 226 | 11.3 | 20.9 | 0.00 | 0.00 | 0.00 | 68 | 1016.1 |
| 20260507055103 | 8 | 225 | 11.3 | 20.9 | 0.00 | 0.00 | 0.00 | 68 | 1016.2 |
| 20260507054604 | 8 | 251 | 14.5 | 20.9 | 0.00 | 0.00 | 0.00 | 68 | 1016.2 |
| 20260507054103 | 8 | 250 | 14.5 | 22.5 | 0.00 | 0.00 | 0.00 | 67 | 1016.1 |
| 20260507053604 | 8 | 241 | 11.3 | 25.7 | 0.00 | 0.00 | 0.00 | 67 | 1016.2 |
| 20260507052604 | 8 | 214 | 12.9 | 22.5 | 0.00 | 0.00 | 0.00 | 67 | 1016.1 |
| 20260507052104 | 8 | 224 | 14.5 | 25.7 | 0.00 | 0.00 | 0.00 | 66 | 1016.1 |
| 20260507051603 | 8 | 227 | 17.7 | 27.4 | 0.00 | 0.00 | 0.00 | 66 | 1016.2 |
| 20260507051104 | 8 | 220 | 14.5 | 20.9 | 0.00 | 0.00 | 0.00 | 66 | 1016.2 |
| 20260507050604 | 8 | 231 | 12.9 | 22.5 | 0.00 | 0.00 | 0.00 | 67 | 1016.2 |
| 20260507050104 | 8 | 228 | 14.5 | 29.0 | 0.00 | 0.00 | 0.00 | 66 | 1016.2 |
| 20260507045603 | 8 | 217 | 16.1 | 27.4 | 0.00 | 0.00 | 0.00 | 65 | 1016.2 |
| 20260507045104 | 8 | 229 | 17.7 | 27.4 | 0.00 | 0.00 | 0.00 | 65 | 1016.3 |
| 20260507044104 | 8 | 228 | 17.7 | 24.1 | 0.00 | 0.00 | 0.00 | 63 | 1016.4 |
| 20260507043603 | 8 | 221 | 14.5 | 24.1 | 0.00 | 0.00 | 0.00 | 63 | 1016.4 |
| 20260507043104 | 8 | 211 | 16.1 | 20.9 | 0.00 | 0.00 | 0.00 | 61 | 1016.4 |
| 20260507042603 | 8 | 209 | 16.1 | 22.5 | 0.00 | 0.00 | 0.00 | 59 | 1016.5 |
| 20260507042103 | 8 | 217 | 16.1 | 22.5 | 0.00 | 0.00 | 0.00 | 59 | 1016.6 |
| 20260507041103 | 9 | 213 | 12.9 | 19.3 | 0.00 | 0.00 | 0.00 | 56 | 1016.8 |
| 20260507040604 | 9 | 218 | 11.3 | 20.9 | 0.00 | 0.00 | 0.00 | 56 | 1016.8 |
| 20260507035604 | 10 | 216 | 14.5 | 22.5 | 0.00 | 0.00 | 0.00 | 56 | 1016.8 |
| 20260507034103 | 10 | 223 | 8.0 | 20.9 | 0.00 | 0.00 | 0.00 | 54 | 1016.9 |
| 20260507033604 | 10 | 219 | 11.3 | 19.3 | 0.00 | 0.00 | 0.00 | 55 | 1016.8 |
| 20260507033103 | 10 | 234 | 11.3 | 16.1 | 0.00 | 0.00 | 0.00 | 55 | 1016.9 |
| 20260507032604 | 10 | 217 | 11.3 | 19.3 | 0.00 | 0.00 | 0.00 | 53 | 1016.9 |
| 20260507032103 | 10 | 223 | 9.7 | 20.9 | 0.00 | 0.00 | 0.00 | 54 | 1016.8 |
| 20260507031604 | 10 | 233 | 12.9 | 19.3 | 0.00 | 0.00 | 0.00 | 53 | 1016.8 |
| 20260507031104 | 10 | 208 | 11.3 | 19.3 | 0.00 | 0.00 | 0.00 | 54 | 1016.9 |
| 20260507030604 | 10 | 227 | 11.3 | 19.3 | 0.00 | 0.00 | 0.00 | 54 | 1016.8 |
| 20260507030104 | 10 | 221 | 11.3 | 20.9 | 0.00 | 0.00 | 0.00 | 55 | 1016.8 |
| 20260507025603 | 10 | 214 | 16.1 | 20.9 | 0.00 | 0.00 | 0.00 | 53 | 1016.8 |
| 20260507025103 | 10 | 227 | 11.3 | 20.9 | 0.00 | 0.00 | 0.00 | 54 | 1016.8 |
| 20260507024604 | 11 | 225 | 11.3 | 19.3 | 0.00 | 0.00 | 0.00 | 53 | 1016.8 |
| 20260507024103 | 11 | 212 | 14.5 | 20.9 | 0.00 | 0.00 | 0.00 | 54 | 1016.8 |
| 20260507023604 | 11 | 213 | 16.1 | 20.9 | 0.00 | 0.00 | 0.00 | 53 | 1016.8 |
| 20260507023104 | 11 | 214 | 14.5 | 20.9 | 0.00 | 0.00 | 0.00 | 54 | 1016.8 |
| 20260507022603 | 11 | 215 | 14.5 | 19.3 | 0.00 | 0.00 | 0.00 | 54 | 1016.8 |
| 20260507022104 | 11 | 204 | 14.5 | 20.9 | 0.00 | 0.00 | 0.00 | 53 | 1016.7 |
| 20260507021603 | 11 | 222 | 11.3 | 16.1 | 0.00 | 0.00 | 0.00 | 53 | 1016.8 |
| 20260507021104 | 11 | 214 | 11.3 | 22.5 | 0.00 | 0.00 | 0.00 | 51 | 1016.7 |
| 20260507020604 | 11 | 225 | 11.3 | 20.9 | 0.00 | 0.00 | 0.00 | 50 | 1016.8 |
| 20260507015104 | 11 | 222 | 14.5 | 22.5 | 0.00 | 0.00 | 0.00 | 48 | 1016.7 |
| 20260507014104 | 12 | 217 | 16.1 | 22.5 | 0.00 | 0.00 | 0.00 | 46 | 1016.5 |
| 20260507013603 | 12 | 234 | 12.9 | 22.5 | 0.00 | 0.00 | 0.00 | 44 | 1016.5 |
| 20260507013103 | 12 | 232 | 16.1 | 20.9 | 0.00 | 0.00 | 0.00 | 43 | 1016.5 |
| 20260507012604 | 12 | 223 | 9.7 | 16.1 | 0.00 | 0.00 | 0.00 | 41 | 1016.3 |
| 20260507012104 | 12 | 221 | 12.9 | 20.9 | 0.00 | 0.00 | 0.00 | 40 | 1016.4 |
| 20260507011604 | 12 | 235 | 11.3 | 20.9 | 0.00 | 0.00 | 0.00 | 39 | 1016.4 |
| 20260507011103 | 12 | 208 | 9.7 | 19.3 | 0.00 | 0.00 | 0.00 | 40 | 1016.4 |
| 20260507010604 | 13 | 216 | 8.0 | 19.3 | 0.00 | 0.00 | 0.00 | 41 | 1016.4 |
| 20260507005604 | 13 | 223 | 9.7 | 20.9 | 0.00 | 0.00 | 0.00 | 42 | 1016.5 |
| 20260507005104 | 13 | 207 | 6.4 | 16.1 | 0.00 | 0.00 | 0.00 | 40 | 1016.4 |
| 20260507004604 | 13 | 237 | 9.7 | 14.5 | 0.00 | 0.00 | 0.00 | 39 | 1016.4 |
| 20260507004104 | 13 | 207 | 6.4 | 20.9 | 0.00 | 0.00 | 0.00 | 38 | 1016.4 |
| 20260507003602 | 13 | 227 | 9.7 | 19.3 | 0.00 | 0.00 | 0.00 | 38 | 1016.5 |
| 20260507003103 | 13 | 225 | 12.9 | 22.5 | 0.00 | 0.00 | 0.00 | 37 | 1016.5 |
| 20260507002602 | 13 | 237 | 9.7 | 20.9 | 0.00 | 0.00 | 0.00 | 37 | 1016.5 |
| 20260507002102 | 13 | 238 | 12.9 | 20.9 | 0.00 | 0.00 | 0.00 | 38 | 1016.5 |
| 20260507001102 | 13 | 240 | 14.5 | 24.1 | 0.00 | 0.00 | 0.00 | 37 | 1016.6 |
| 20260507000602 | 13 | 259 | 17.7 | 20.9 | 0.00 | 0.00 | 0.00 | 35 | 1016.7 |
| 20260506235602 | 13 | 225 | 9.7 | 20.9 | 0.00 | 0.00 | 0.00 | 32 | 1016.7 |
| 20260506235102 | 13 | 234 | 11.3 | 20.9 | 0.00 | 0.00 | 0.00 | 32 | 1016.7 |
| 20260506234603 | 13 | 273 | 12.9 | 20.9 | 0.00 | 0.00 | 0.00 | 33 | 1016.7 |
| 20260506234102 | 13 | 223 | 12.9 | 22.5 | 0.00 | 0.00 | 0.00 | 34 | 1016.7 |
| 20260506233602 | 13 | 255 | 16.1 | 27.4 | 0.00 | 0.00 | 0.00 | 33 | 1016.7 |
| 20260506233102 | 14 | 225 | 14.5 | 20.9 | 0.00 | 0.00 | 0.00 | 32 | 1016.8 |
| 20260506232602 | 14 | 269 | 12.9 | 20.9 | 0.00 | 0.00 | 0.00 | 31 | 1016.7 |
| 20260506231602 | 14 | 245 | 12.9 | 22.5 | 0.00 | 0.00 | 0.00 | 29 | 1016.7 |
| 20260506231102 | 13 | 292 | 9.7 | 16.1 | 0.00 | 0.00 | 0.00 | 30 | 1016.6 |
| 20260506230602 | 13 | 260 | 11.3 | 19.3 | 0.00 | 0.00 | 0.00 | 30 | 1016.7 |
| 20260506225602 | 13 | 214 | 8.0 | 20.9 | 0.00 | 0.00 | 0.00 | 28 | 1016.7 |
| 20260506225103 | 13 | 274 | 16.1 | 20.9 | 0.00 | 0.00 | 0.00 | 28 | 1016.8 |
| 20260506224602 | 14 | 228 | 12.9 | 22.5 | 0.00 | 0.00 | 0.00 | 29 | 1016.8 |
| 20260506224102 | 14 | 250 | 11.3 | 20.9 | 0.00 | 0.00 | 0.00 | 27 | 1016.8 |
| 20260506223602 | 13 | 212 | 9.7 | 20.9 | 0.00 | 0.00 | 0.00 | 29 | 1016.8 |
| 20260506223103 | 13 | 251 | 11.3 | 20.9 | 0.00 | 0.00 | 0.00 | 28 | 1016.8 |
| 20260506222602 | 14 | 233 | 16.1 | 29.0 | 0.00 | 0.00 | 0.00 | 28 | 1016.8 |
| 20260506221602 | 13 | 275 | 9.7 | 19.3 | 0.00 | 0.00 | 0.00 | 28 | 1016.9 |
| 20260506221102 | 13 | 254 | 11.3 | 20.9 | 0.00 | 0.00 | 0.00 | 27 | 1017.0 |
| 20260506220602 | 14 | 294 | 17.7 | 24.1 | 0.00 | 0.00 | 0.00 | 26 | 1017.0 |
| 20260506215602 | 14 | 274 | 12.9 | 27.4 | 0.00 | 0.00 | 0.00 | 26 | 1017.0 |
| 20260506215102 | 13 | 303 | 16.1 | 20.9 | 0.00 | 0.00 | 0.00 | 27 | 1017.2 |
| 20260506214602 | 14 | 267 | 16.1 | 20.9 | 0.00 | 0.00 | 0.00 | 26 | 1017.2 |
| 20260506214102 | 13 | 242 | 11.3 | 20.9 | 0.00 | 0.00 | 0.00 | 27 | 1017.2 |
| 20260506213602 | 13 | 269 | 11.3 | 19.3 | 0.00 | 0.00 | 0.00 | 28 | 1017.3 |
| 20260506213102 | 13 | 261 | 8.0 | 20.9 | 0.00 | 0.00 | 0.00 | 26 | 1017.3 |
| 20260506212602 | 13 | 253 | 9.7 | 22.5 | 0.00 | 0.00 | 0.00 | 27 | 1017.4 |
| 20260506212102 | 14 | 304 | 14.5 | 20.9 | 0.00 | 0.00 | 0.00 | 25 | 1017.5 |
| 20260506211603 | 13 | 239 | 4.8 | 9.7 | 0.00 | 0.00 | 0.00 | 26 | 1017.6 |
| 20260506210602 | 13 | 300 | 11.3 | 20.9 | 0.00 | 0.00 | 0.00 | 29 | 1017.7 |
| 20260506205603 | 13 | 243 | 14.5 | 24.1 | 0.00 | 0.00 | 0.00 | 26 | 1017.9 |
| 20260506205102 | 13 | 291 | 19.3 | 27.4 | 0.00 | 0.00 | 0.00 | 25 | 1018.0 |
| 20260506204102 | 13 | 271 | 11.3 | 20.9 | 0.00 | 0.00 | 0.00 | 29 | 1018.1 |
| 20260506203602 | 13 | 294 | 16.1 | 22.5 | 0.00 | 0.00 | 0.00 | 28 | 1018.1 |
| 20260506203102 | 13 | 276 | 9.7 | 16.1 | 0.00 | 0.00 | 0.00 | 27 | 1018.1 |
| 20260506201602 | 13 | 273 | 16.1 | 20.9 | 0.00 | 0.00 | 0.00 | 27 | 1018.4 |
| 20260506200603 | 13 | 286 | 19.3 | 22.5 | 0.00 | 0.00 | 0.00 | 27 | 1018.4 |
| 20260506195602 | 13 | 339 | 14.5 | 20.9 | 0.00 | 0.00 | 0.00 | 28 | 1018.4 |
| 20260506195102 | 13 | 266 | 11.3 | 16.1 | 0.00 | 0.00 | 0.00 | 30 | 1018.6 |
| 20260506194102 | 13 | 314 | 11.3 | 22.5 | 0.00 | 0.00 | 0.00 | 27 | 1018.6 |
| 20260506193603 | 13 | 359 | 3.2 | 14.5 | 0.00 | 0.00 | 0.00 | 28 | 1018.8 |
| 20260506192602 | 13 | 294 | 19.3 | 25.7 | 0.00 | 0.00 | 0.00 | 30 | 1018.8 |
| 20260506192102 | 12 | 309 | 8.0 | 19.3 | 0.00 | 0.00 | 0.00 | 30 | 1018.9 |
| 20260506191602 | 12 | 244 | 11.3 | 20.9 | 0.00 | 0.00 | 0.00 | 30 | 1018.9 |
| 20260506191102 | 12 | 307 | 14.5 | 20.9 | 0.00 | 0.00 | 0.00 | 29 | 1019.0 |
| 20260506185602 | 13 | 271 | 16.1 | 24.1 | 0.00 | 0.00 | 0.00 | 29 | 1019.1 |
| 20260506185102 | 12 | 212 | 6.4 | 14.5 | 0.00 | 0.00 | 0.00 | 29 | 1019.1 |
| 20260506184602 | 12 | 254 | 1.6 | 9.7 | 0.00 | 0.00 | 0.00 | 28 | 1019.1 |
| 20260506184103 | 12 | 254 | 9.7 | 19.3 | 0.00 | 0.00 | 0.00 | 30 | 1019.2 |
| 20260506183602 | 12 | 278 | 11.3 | 20.9 | 0.00 | 0.00 | 0.00 | 31 | 1019.3 |
| 20260506183103 | 12 | 302 | 20.9 | 25.7 | 0.00 | 0.00 | 0.00 | 29 | 1019.2 |
| 20260506182603 | 12 | 268 | 19.3 | 22.5 | 0.00 | 0.00 | 0.00 | 30 | 1019.4 |
| 20260506182102 | 12 | 290 | 11.3 | 37.0 | 0.00 | 0.00 | 0.00 | 34 | 1019.3 |
| 20260506181102 | 12 | 263 | 4.8 | 19.3 | 0.00 | 0.00 | 0.00 | 29 | 1019.4 |
| 20260506180603 | 12 | 244 | 11.3 | 22.5 | 0.00 | 0.00 | 0.00 | 29 | 1019.5 |
| 20260506175103 | 11 | 327 | 1.6 | 11.3 | 0.00 | 0.00 | 0.00 | 32 | 1019.8 |
| 20260506174602 | 11 | 281 | 4.8 | 20.9 | 0.00 | 0.00 | 0.00 | 32 | 1019.7 |
| 20260506174103 | 11 | 307 | 6.4 | 16.1 | 0.00 | 0.00 | 0.00 | 32 | 1019.7 |
| 20260506173602 | 11 | 315 | 4.8 | 9.7 | 0.00 | 0.00 | 0.00 | 30 | 1019.7 |
| 20260506173103 | 11 | 308 | 9.7 | 16.1 | 0.00 | 0.00 | 0.00 | 31 | 1019.7 |
| 20260506172103 | 11 | 277 | 14.5 | 22.5 | 0.00 | 0.00 | 0.00 | 30 | 1019.8 |
| 20260506171602 | 12 | 249 | 11.3 | 20.9 | 0.00 | 0.00 | 0.00 | 31 | 1019.7 |
| 20260506171102 | 12 | 304 | 11.3 | 20.9 | 0.00 | 0.00 | 0.00 | 30 | 1019.8 |
| 20260506170602 | 12 | 309 | 20.9 | 24.1 | 0.00 | 0.00 | 0.00 | 30 | 1019.9 |
| 20260506165602 | 11 | 285 | 3.2 | 11.3 | 0.00 | 0.00 | 0.00 | 32 | 1019.9 |
| 20260506165102 | 11 | 305 | 8.0 | 16.1 | 0.00 | 0.00 | 0.00 | 30 | 1019.8 |
| 20260506164103 | 11 | 312 | 8.0 | 19.3 | 0.00 | 0.00 | 0.00 | 33 | 1019.9 |
| 20260506163602 | 11 | 294 | 17.7 | 20.9 | 0.00 | 0.00 | 0.00 | 31 | 1019.8 |
| 20260506163103 | 11 | 32 | 9.7 | 20.9 | 0.00 | 0.00 | 0.00 | 30 | 1020.0 |
| 20260506162602 | 11 | 309 | 9.7 | 20.9 | 0.00 | 0.00 | 0.00 | 34 | 1020.0 |
| 20260506162102 | 11 | 313 | 9.7 | 20.9 | 0.00 | 0.00 | 0.00 | 32 | 1020.0 |
| 20260506161602 | 11 | 55 | 8.0 | 19.3 | 0.00 | 0.00 | 0.00 | 34 | 1020.0 |
| 20260506161102 | 10 | 190 | 4.8 | 16.1 | 0.00 | 0.00 | 0.00 | 32 | 1019.9 |
| 20260506160603 | 11 | 234 | 11.3 | 20.9 | 0.00 | 0.00 | 0.00 | 30 | 1019.9 |
| 20260506155602 | 11 | 315 | 3.2 | 14.5 | 0.00 | 0.00 | 0.00 | 32 | 1020.0 |
| 20260506154603 | 11 | 294 | 3.2 | 12.9 | 0.00 | 0.00 | 0.00 | 34 | 1020.0 |
| 20260506154102 | 11 | 294 | 4.8 | 9.7 | 0.00 | 0.00 | 0.00 | 34 | 1020.1 |
| 20260506153603 | 11 | 293 | 6.4 | 14.5 | 0.00 | 0.00 | 0.00 | 31 | 1020.1 |
| 20260506153102 | 10 | 293 | 3.2 | 9.7 | 0.00 | 0.00 | 0.00 | 34 | 1020.1 |
| 20260506152603 | 10 | 292 | 4.8 | 12.9 | 0.00 | 0.00 | 0.00 | 35 | 1020.1 |
| 20260506152102 | 10 | 287 | 1.6 | 8.0 | 0.00 | 0.00 | 0.00 | 33 | 1020.1 |
| 20260506151603 | 10 | 287 | 8.0 | 12.9 | 0.00 | 0.00 | 0.00 | 36 | 1020.1 |
| 20260506151103 | 9 | 286 | 4.8 | 11.3 | 0.00 | 0.00 | 0.00 | 36 | 1020.1 |
| 20260506150602 | 9 | 287 | 1.6 | 12.9 | 0.00 | 0.00 | 0.00 | 34 | 1020.1 |
| 20260506145602 | 9 | 286 | 3.2 | 8.0 | 0.00 | 0.00 | 0.00 | 36 | 1020.1 |
| 20260506145103 | 9 | 286 | 3.2 | 8.0 | 0.00 | 0.00 | 0.00 | 37 | 1020.0 |
| 20260506144602 | 9 | 286 | 1.6 | 4.8 | 0.00 | 0.00 | 0.00 | 39 | 1020.0 |
| 20260506144102 | 9 | 286 | 1.6 | 3.2 | 0.00 | 0.00 | 0.00 | 40 | 1019.9 |
| 20260506143602 | 8 | 286 | 3.2 | 4.8 | 0.00 | 0.00 | 0.00 | 42 | 1019.9 |
| 20260506143102 | 8 | 286 | 1.6 | 3.2 | 0.00 | 0.00 | 0.00 | 43 | 1019.9 |
| 20260506142603 | 8 | 286 | 0.0 | 3.2 | 0.00 | 0.00 | 0.00 | 42 | 1019.8 |
| 20260506142102 | 8 | 286 | 0.0 | 3.2 | 0.00 | 0.00 | 0.00 | 43 | 1019.7 |
| 20260506141103 | 8 | 286 | 0.0 | 3.2 | 0.00 | 0.00 | 0.00 | 44 | 1019.6 |
| 20260506140602 | 8 | 286 | 1.6 | 3.2 | 0.00 | 0.00 | 0.00 | 44 | 1019.6 |
| 20260506135602 | 7 | 286 | 0.0 | 0.0 | 0.00 | 0.00 | 0.00 | 45 | 1019.7 |
| 20260506135103 | 7 | 286 | 0.0 | 0.0 | 0.00 | 0.00 | 0.00 | 46 | 1019.8 |
| 20260506134102 | 7 | 286 | 1.6 | 3.2 | 0.00 | 0.00 | 0.00 | 49 | 1019.8 |
| 20260506133603 | 7 | 286 | 3.2 | 4.8 | 0.00 | 0.00 | 0.00 | 55 | 1019.8 |
| 20260506133102 | 7 | 286 | 3.2 | 4.8 | 0.00 | 0.00 | 0.00 | 55 | 1019.7 |
| 20260506132102 | 6 | 286 | 3.2 | 3.2 | 0.00 | 0.00 | 0.00 | 59 | 1019.5 |
| 20260506131603 | 6 | 286 | 3.2 | 4.8 | 0.00 | 0.00 | 0.00 | 60 | 1019.4 |
| 20260506131103 | 6 | 286 | 1.6 | 3.2 | 0.00 | 0.00 | 0.00 | 61 | 1019.3 |
| 20260506130602 | 6 | 286 | 1.6 | 3.2 | 0.00 | 0.00 | 0.00 | 61 | 1019.3 |
| 20260506124102 | 5 | 286 | 1.6 | 4.8 | 0.00 | 0.00 | 0.00 | 64 | 1019.1 |
| 20260506123602 | 5 | 286 | 1.6 | 4.8 | 0.00 | 0.00 | 0.00 | 64 | 1019.0 |
| 20260506123103 | 5 | 286 | 1.6 | 1.6 | 0.00 | 0.00 | 0.00 | 64 | 1018.9 |
| 20260506122602 | 4 | 286 | 0.0 | 1.6 | 0.00 | 0.00 | 0.00 | 64 | 1018.8 |
| 20260506122103 | 4 | 286 | 0.0 | 3.2 | 0.00 | 0.00 | 0.00 | 65 | 1018.7 |
| 20260506121602 | 4 | 286 | 1.6 | 3.2 | 0.00 | 0.00 | 0.00 | 64 | 1018.7 |
| 20260506121102 | 4 | 286 | 1.6 | 1.6 | 0.00 | 0.00 | 0.00 | 64 | 1018.6 |
| 20260506115603 | 4 | 286 | 1.6 | 3.2 | 0.00 | 0.00 | 0.00 | 64 | 1018.4 |
| 20260506115103 | 4 | 286 | 3.2 | 3.2 | 0.00 | 0.00 | 0.00 | 64 | 1018.3 |
| 20260506114602 | 4 | 286 | 3.2 | 4.8 | 0.00 | 0.00 | 0.00 | 64 | 1018.2 |
| 20260506114103 | 4 | 286 | 1.6 | 4.8 | 0.00 | 0.00 | 0.00 | 64 | 1018.2 |
| 20260506113602 | 4 | 286 | 3.2 | 4.8 | 0.00 | 0.00 | 0.00 | 64 | 1018.1 |
| 20260506113102 | 4 | 286 | 1.6 | 4.8 | 0.00 | 0.00 | 0.00 | 63 | 1018.1 |
| 20260506112102 | 4 | 286 | 1.6 | 3.2 | 0.00 | 0.00 | 0.00 | 63 | 1018.0 |
| 20260506111102 | 4 | 286 | 1.6 | 3.2 | 0.00 | 0.00 | 0.00 | 63 | 1017.9 |
| 20260506110604 | 4 | 286 | 3.2 | 4.8 | 0.00 | 0.00 | 0.00 | 63 | 1017.8 |
| 20260506105603 | 4 | 286 | 1.6 | 3.2 | 0.00 | 0.00 | 0.00 | 62 | 1017.9 |
| 20260506104602 | 4 | 286 | 1.6 | 3.2 | 0.00 | 0.00 | 0.00 | 62 | 1017.9 |
| 20260506103602 | 4 | 286 | 0.0 | 1.6 | 0.00 | 0.00 | 0.00 | 62 | 1017.7 |
| 20260506103103 | 4 | 286 | 0.0 | 0.0 | 0.00 | 0.00 | 0.00 | 61 | 1017.7 |
| 20260506102603 | 4 | 286 | 0.0 | 0.0 | 0.00 | 0.00 | 0.00 | 61 | 1017.7 |
| 20260506102102 | 4 | 286 | 1.6 | 1.6 | 0.00 | 0.00 | 0.00 | 60 | 1017.7 |
| 20260506101603 | 4 | 286 | 0.0 | 0.0 | 0.00 | 0.00 | 0.00 | 60 | 1017.7 |
| 20260506101103 | 4 | 286 | 1.6 | 3.2 | 0.00 | 0.00 | 0.00 | 59 | 1017.6 |
| 20260506100603 | 4 | 286 | 1.6 | 3.2 | 0.00 | 0.00 | 0.00 | 59 | 1017.6 |
| 20260506095602 | 4 | 286 | 0.0 | 1.6 | 0.00 | 0.00 | 0.00 | 59 | 1017.6 |
| 20260506095103 | 4 | 286 | 0.0 | 1.6 | 0.00 | 0.00 | 0.00 | 59 | 1017.7 |
| 20260506094602 | 4 | 286 | 0.0 | 3.2 | 0.00 | 0.00 | 0.00 | 58 | 1017.7 |